Location: Franzen
(48.6167°N, 15.3833°E)
Time: 09:33:02
(UTC+00:00)

Altair - Pass Details

Date: 01 August 2021
Orbit: 1501 x 1682 km, 47.2° (Epoch: 20 September)

Event Time Altitude Azimuth Distance (km) Brightness Sun altitude
Rises 23:28:23 0° 209° (SSW) 4,770 - -23.4°
Reaches altitude 10° 23:31:50 10° 201° (SSW) 3,761 - -23.4°
Exits shadow 23:38:11 32° 162° (SSE) 2,394 8.0 -23.2°
Maximum altitude 23:40:05 35° 140° (SE) 2,284 8.0 -23.2°
Drops below altitude 10° 23:48:08 10° 79° (ENE) 3,673 9.7 -22.9°
Sets 23:51:26 0° 71° (ENE) 4,646 10.5 -22.8°
